Weather History for Gulf Shores, AL

Change the Weather History Date:

Tuesday, February 26, 2013

  Actual Average (KPNS) Record (KPNS)
Temperature  
Mean Temperature 58 °F 57 °F  
Max Temperature 64 °F 66 °F 82 °F (1972)
Min Temperature 53 °F 48 °F 26 °F (1967)
Degree Days  
Heating Degree Days 6 9  
Month to date heating degree days 282  
Since 1 July heating degree days 1293  
Cooling Degree Days 0 0  
Month to date cooling degree days 0  
Year to date cooling degree days 6  
Growing Degree Days 8 (Base 50)    
Moisture  
Dew Point 43 °F    
Average Humidity 62    
Maximum Humidity 94    
Minimum Humidity 51    
Precipitation  
Precipitation 0.36 in 0.18 in 2.01 in (2003)
Month to date precipitation 4.69  
Year to date precipitation 9.32  
Snow  
Snow 0.00 in 0.00 in - ()
Month to date snowfall 0.0  
Since 1 July snowfall 0.0  
Snow Depth -    
Sea Level Pressure  
Sea Level Pressure 29.74 in    
Wind  
Wind Speed 15 mph (WSW)    
Max Wind Speed 25 mph    
Max Gust Speed 34 mph    
Visibility 10 miles    
Events      
T = Trace of Precipitation, MM = Missing Value Source: NWS Daily Summary

Daily Weather History Graph

Daily Weather History Graph

Search for Another Location

Airport:

Trip Planner

Search our weather history database for the weather conditions in past years. The results will help you decide how hot, cold, wet, or windy it might be!

Date:

Astronomy

Feb. 26, 2013 Rise Set
Actual Time 6:19 AM CST 5:47 PM CST
Civil Twilight 5:55 AM CST 6:11 PM CST
Nautical Twilight 5:27 AM CST 6:39 PM CST
Astronomical Twilight 4:59 AM CST 7:07 PM CST
Moon 6:54 PM CST (2/26) 6:29 AM CST (2/26)
Length of Visible Light 12h 16m
Length of Day
11h 27m
Full, 99% of the Moon is Illuminated
Feb 26
Full
Mar 4
Last Quarter
Mar 11
New
Mar 19
First Quarter
Mar 27
Full

Hourly Weather History & Observations

Time (CST) Temp. Dew Point Humidity Pressure Visibility Wind Dir Wind Speed Gust Speed Precip Events Conditions
12:15 AM 64.4 °F 62.6 °F 94% 29.56 in 7.0 mi SW 8.1 mph - 0.08 in   Overcast
12:35 AM 64.4 °F 60.8 °F 88% 29.57 in 7.0 mi SW 11.5 mph - 0.17 in   Overcast
12:55 AM 62.6 °F 60.8 °F 94% 29.57 in 7.0 mi WSW 11.5 mph - 0.24 in   Overcast
1:15 AM 62.6 °F 60.8 °F 94% 29.57 in 10.0 mi WSW 13.8 mph 17.3 mph 0.05 in   Overcast
1:35 AM 60.8 °F 59.0 °F 94% 29.56 in 10.0 mi WSW 13.8 mph 21.9 mph 0.08 in   Overcast
1:55 AM 62.6 °F 53.6 °F 72% 29.57 in 10.0 mi WSW 11.5 mph 21.9 mph 0.10 in   Overcast
2:15 AM 62.6 °F 51.8 °F 68% 29.57 in 10.0 mi West 15.0 mph 24.2 mph 0.01 in   Overcast
2:35 AM 60.8 °F 50.0 °F 68% 29.57 in 10.0 mi West 16.1 mph 21.9 mph 0.02 in   Overcast
2:55 AM 60.8 °F 48.2 °F 63% 29.57 in 10.0 mi WSW 18.4 mph 23.0 mph 0.02 in   Mostly Cloudy
3:15 AM 60.8 °F 46.4 °F 59% 29.58 in 10.0 mi WSW 17.3 mph 23.0 mph N/A   Scattered Clouds
3:35 AM 59.0 °F 46.4 °F 63% 29.58 in 10.0 mi West 20.7 mph 27.6 mph N/A   Scattered Clouds
3:55 AM 59.0 °F 44.6 °F 59% 29.58 in 10.0 mi West 13.8 mph 25.3 mph N/A   Clear
4:15 AM 59.0 °F 44.6 °F 59% 29.60 in 10.0 mi West 18.4 mph 29.9 mph N/A   Clear
4:35 AM 59.0 °F 44.6 °F 59% 29.61 in 10.0 mi West 17.3 mph 26.5 mph N/A   Clear
4:55 AM 59.0 °F 44.6 °F 59% 29.61 in 10.0 mi WSW 18.4 mph - N/A   Clear
5:15 AM 57.2 °F 44.6 °F 63% 29.63 in 10.0 mi WSW 17.3 mph 24.2 mph N/A   Clear
5:35 AM 55.4 °F 42.8 °F 63% 29.63 in 10.0 mi West 17.3 mph 24.2 mph N/A   Clear
6:15 AM 55.4 °F 37.4 °F 51% 29.65 in 10.0 mi WSW 17.3 mph 25.3 mph N/A   Clear
6:35 AM 55.4 °F 39.2 °F 54% 29.67 in 10.0 mi WSW 18.4 mph 25.3 mph N/A   Clear
6:55 AM 55.4 °F 41.0 °F 58% 29.68 in 10.0 mi West 16.1 mph 24.2 mph N/A   Clear
7:15 AM 55.4 °F 41.0 °F 58% 29.69 in 10.0 mi WSW 16.1 mph 24.2 mph N/A   Clear
7:35 AM 55.4 °F 42.8 °F 63% 29.69 in 10.0 mi WSW 17.3 mph 21.9 mph N/A   Scattered Clouds
7:55 AM 53.6 °F 41.0 °F 62% 29.71 in 10.0 mi WSW 21.9 mph - N/A   Scattered Clouds
8:15 AM 55.4 °F 42.8 °F 63% 29.72 in 10.0 mi WSW 23.0 mph - N/A   Mostly Cloudy
8:35 AM 55.4 °F 41.0 °F 58% 29.72 in 10.0 mi North - - N/A   Mostly Cloudy
8:55 AM 55.4 °F 42.8 °F 63% 29.73 in 10.0 mi North - - N/A   Mostly Cloudy
9:15 AM 55.4 °F 41.0 °F 58% 29.75 in 10.0 mi West 18.4 mph 31.1 mph N/A   Mostly Cloudy
9:35 AM 53.6 °F 39.2 °F 58% 29.75 in 10.0 mi West 18.4 mph 28.8 mph N/A   Scattered Clouds
9:55 AM 53.6 °F 39.2 °F 58% 29.75 in 10.0 mi West 20.7 mph 28.8 mph N/A   Scattered Clouds
10:15 AM 55.4 °F 39.2 °F 54% 29.76 in 10.0 mi West 20.7 mph 29.9 mph N/A   Clear
10:35 AM 53.6 °F 39.2 °F 58% 29.77 in 10.0 mi North - - N/A   Clear
10:55 AM 53.6 °F 39.2 °F 58% 29.78 in 10.0 mi West 23.0 mph 34.5 mph N/A   Clear
11:15 AM 55.4 °F 41.0 °F 58% 29.78 in 10.0 mi West 25.3 mph 31.1 mph N/A   Scattered Clouds
11:35 AM 55.4 °F 41.0 °F 58% 29.78 in 10.0 mi West 19.6 mph 32.2 mph N/A   Scattered Clouds
11:55 AM 55.4 °F 41.0 °F 58% 29.78 in 10.0 mi West 17.3 mph 29.9 mph N/A   Scattered Clouds
12:15 PM 55.4 °F 41.0 °F 58% 29.78 in 10.0 mi WSW 24.2 mph 32.2 mph N/A   Scattered Clouds
12:35 PM 55.4 °F 42.8 °F 63% 29.77 in 10.0 mi West 23.0 mph - N/A   Scattered Clouds
12:55 PM 57.2 °F 41.0 °F 55% 29.76 in 10.0 mi West 23.0 mph - N/A   Scattered Clouds
1:15 PM 57.2 °F 41.0 °F 55% 29.76 in 10.0 mi WSW 17.3 mph - N/A   Scattered Clouds
1:35 PM 55.4 °F 41.0 °F 58% 29.75 in 10.0 mi West 23.0 mph 27.6 mph N/A   Clear
1:55 PM 57.2 °F 41.0 °F 55% 29.75 in 10.0 mi North - - N/A   Clear
2:15 PM 57.2 °F 41.0 °F 55% 29.76 in 10.0 mi WSW 20.7 mph - N/A   Clear
2:35 PM 55.4 °F 41.0 °F 58% 29.75 in 10.0 mi North - - N/A   Clear
2:55 PM 55.4 °F 41.0 °F 58% 29.76 in 10.0 mi WSW 13.8 mph 27.6 mph N/A   Clear
3:15 PM 55.4 °F 39.2 °F 54% 29.76 in 10.0 mi WSW 17.3 mph - N/A   Clear
3:35 PM 55.4 °F 41.0 °F 58% 29.76 in 10.0 mi WSW 17.3 mph 24.2 mph N/A   Clear
3:55 PM 55.4 °F 41.0 °F 58% 29.76 in 10.0 mi WSW 18.4 mph 26.5 mph N/A   Clear
4:15 PM 55.4 °F 41.0 °F 58% 29.77 in 10.0 mi WSW 13.8 mph 19.6 mph N/A   Clear
4:35 PM 55.4 °F 41.0 °F 58% 29.78 in 10.0 mi WSW 12.7 mph 25.3 mph N/A   Clear
4:55 PM 55.4 °F 41.0 °F 58% 29.78 in 10.0 mi WSW 15.0 mph - N/A   Clear
5:15 PM 55.4 °F 41.0 °F 58% 29.79 in 10.0 mi WSW 16.1 mph 26.5 mph N/A   Clear
5:35 PM 55.4 °F 41.0 °F 58% 29.80 in 10.0 mi WSW 17.3 mph 25.3 mph N/A   Clear
5:55 PM 53.6 °F 41.0 °F 62% 29.81 in 10.0 mi West 15.0 mph 20.7 mph N/A   Clear
6:15 PM 53.6 °F 41.0 °F 62% 29.81 in 10.0 mi West 11.5 mph - N/A   Clear
6:35 PM 53.6 °F 41.0 °F 62% 29.83 in 10.0 mi West 13.8 mph - N/A   Clear
6:55 PM 55.4 °F 41.0 °F 58% 29.84 in 10.0 mi West 15.0 mph 23.0 mph N/A   Clear
7:15 PM 55.4 °F 41.0 °F 58% 29.85 in 10.0 mi West 13.8 mph 21.9 mph N/A   Clear
7:35 PM 55.4 °F 41.0 °F 58% 29.86 in 10.0 mi West 11.5 mph - N/A   Clear
7:55 PM 55.4 °F 42.8 °F 63% 29.87 in 10.0 mi West 12.7 mph 18.4 mph N/A   Clear
8:15 PM 55.4 °F 41.0 °F 58% 29.88 in 10.0 mi West 13.8 mph 20.7 mph N/A   Clear
8:35 PM 55.4 °F 42.8 °F 63% 29.89 in 10.0 mi West 12.7 mph 16.1 mph N/A   Clear
8:55 PM 55.4 °F 42.8 °F 63% 29.89 in 10.0 mi West 9.2 mph - N/A   Clear
9:15 PM 55.4 °F 42.8 °F 63% 29.91 in 10.0 mi West 11.5 mph - N/A   Clear
9:35 PM 55.4 °F 42.8 °F 63% 29.91 in 10.0 mi West 10.4 mph - N/A   Clear
9:55 PM 55.4 °F 42.8 °F 63% 29.92 in 10.0 mi West 11.5 mph - N/A   Clear
10:15 PM 53.6 °F 42.8 °F 67% 29.92 in 10.0 mi West 8.1 mph - N/A   Clear
10:55 PM 53.6 °F 41.0 °F 62% 29.93 in 10.0 mi West 6.9 mph - N/A   Clear
11:15 PM 53.6 °F 39.2 °F 58% 29.93 in 10.0 mi West 8.1 mph - N/A   Clear
11:35 PM 53.6 °F 39.2 °F 58% 29.93 in 10.0 mi WNW 8.1 mph - N/A   Clear
11:55 PM 53.6 °F 39.2 °F 58% 29.93 in 10.0 mi WNW 4.6 mph - N/A   Clear